Weather History for New Philadelphia, OH

Change the Weather History Date:

Saturday, July 13, 2013

  Actual Average Record
Temperature  
Mean Temperature 73 °F 73 °F  
Max Temperature 84 °F 84 °F 93 °F (1983)
Min Temperature 61 °F 62 °F 46 °F (1970)
Degree Days  
Heating Degree Days 0 0  
Month to date heating degree days 0 0  
Since 1 June heating degree days 22 35  
Since 1 July heating degree days 0 0  
Cooling Degree Days 8 8  
Month to date cooling degree days 102 95  
Year to date cooling degree days 345 281  
Since 1 June cooling degree days 247 238  
Growing Degree Days 22 (Base 50)    
Moisture  
Dew Point 63 °F    
Average Humidity 74    
Maximum Humidity 93    
Minimum Humidity 54    
Precipitation  
Precipitation 0.00 in 0.14 in 2.20 in (1990)
Month to date precipitation 2.05 1.49  
Year to date precipitation 19.65 20.82  
Sea Level Pressure  
Sea Level Pressure 30.16 in    
Wind  
Wind Speed 3 mph (ESE)    
Max Wind Speed 12 mph    
Max Gust Speed 15 mph    
Visibility 9 miles    
Events      
T = Trace of Precipitation, MM = Missing Value Source: NWS Daily Summary

Daily Weather History Graph

Daily Weather History Graph

Search for Another Location

Airport:

Trip Planner

Search our weather history database for the weather conditions in past years. The results will help you decide how hot, cold, wet, or windy it might be!

Date:

Astronomy

Jul. 13, 2013 Rise Set
Actual Time 6:06 AM EDT 8:55 PM EDT
Civil Twilight 5:34 AM EDT 9:28 PM EDT
Nautical Twilight 4:53 AM EDT 10:08 PM EDT
Astronomical Twilight 4:07 AM EDT 10:55 PM EDT
Moon 11:22 AM EDT (7/13) 11:34 PM EDT (7/13)
Length of Visible Light 15h 53m
Length of Day
14h 49m
Waxing Crescent, 25% of the Moon is Illuminated
Jul 13
Waxing Crescent
Jul 15
First Quarter
Jul 22
Full
Jul 29
Last Quarter
Aug 6
New

Hourly Weather History & Observations

Time (EDT) Temp. Heat Index Dew Point Humidity Pressure Visibility Wind Dir Wind Speed Gust Speed Precip Events Conditions
12:53 AM 64.9 °F - 63.0 °F 93% 30.12 in 10.0 mi Calm Calm - N/A   Overcast
1:53 AM 64.0 °F - 62.1 °F 93% 30.12 in 6.0 mi Calm Calm - N/A   Partly Cloudy
2:53 AM 64.0 °F - 61.0 °F 90% 30.11 in 7.0 mi Calm Calm - N/A   Clear
3:53 AM 62.1 °F - 60.1 °F 93% 30.11 in 4.0 mi Calm Calm - N/A   Clear
4:53 AM 62.1 °F - 60.1 °F 93% 30.12 in 5.0 mi Calm Calm - N/A   Clear
5:53 AM 62.1 °F - 59.0 °F 90% 30.12 in 8.0 mi Calm Calm - N/A   Clear
6:53 AM 62.1 °F - 60.1 °F 93% 30.15 in 8.0 mi Calm Calm - N/A   Clear
7:53 AM 66.0 °F - 60.1 °F 81% 30.16 in 10.0 mi Calm Calm - N/A   Partly Cloudy
8:53 AM 64.9 °F - 61.0 °F 87% 30.18 in 10.0 mi East 4.6 mph - N/A   Partly Cloudy
9:53 AM 72.0 °F - 63.0 °F 73% 30.18 in 10.0 mi Calm Calm - N/A   Clear
10:53 AM 75.0 °F - 64.9 °F 71% 30.17 in 10.0 mi Calm Calm - N/A   Clear
11:53 AM 77.0 °F - 66.0 °F 69% 30.17 in 10.0 mi SE 6.9 mph - N/A   Scattered Clouds
12:53 PM 78.1 °F - 66.0 °F 66% 30.17 in 10.0 mi Variable 5.8 mph - N/A   Mostly Cloudy
1:53 PM 80.1 °F 82.1 °F 66.0 °F 62% 30.17 in 10.0 mi SE 8.1 mph - N/A   Mostly Cloudy
2:53 PM 81.0 °F 83.0 °F 66.0 °F 60% 30.16 in 10.0 mi SSE 4.6 mph - N/A   Partly Cloudy
3:53 PM 82.0 °F 83.8 °F 64.9 °F 56% 30.16 in 10.0 mi ESE 5.8 mph - N/A   Scattered Clouds
4:53 PM 82.0 °F 83.8 °F 64.9 °F 56% 30.15 in 10.0 mi East 6.9 mph - N/A   Partly Cloudy
5:53 PM 81.0 °F 82.2 °F 63.0 °F 54% 30.16 in 10.0 mi East 8.1 mph - N/A   Scattered Clouds
6:53 PM 81.0 °F 82.5 °F 64.0 °F 56% 30.17 in 10.0 mi East 4.6 mph - N/A   Partly Cloudy
7:53 PM 80.1 °F 81.9 °F 64.9 °F 60% 30.17 in 10.0 mi East 4.6 mph - N/A   Clear
8:53 PM 77.0 °F - 64.9 °F 66% 30.18 in 10.0 mi ENE 3.5 mph - N/A   Clear
9:53 PM 71.1 °F - 66.0 °F 84% 30.19 in 10.0 mi Calm Calm - N/A   Clear
10:53 PM 70.0 °F - 66.0 °F 87% 30.21 in 9.0 mi Calm Calm - N/A   Clear
11:53 PM 70.0 °F - 66.0 °F 87% 30.22 in 10.0 mi Calm Calm - N/A   Clear